Weather Roundup
Issued by NWS Corpus Christi, TX

Home | Current Version | Previous Version | Text Only | Print | Product List | Glossary On
Versions: 1 2 3 4 5 6 7 8 9 10 11 12 13 14 15 16 17 18 19 20 21 22 23 24 25 26 27 28 29 30 31 32 33 34 35 36 37 38 39 40 41 42 43 44 45 46 47 48 49 50
000
ASUS44 KCRP 242310
HRRCRP

SOUTH TEXAS REGIONAL WEATHER ROUNDUP
NATIONAL WEATHER SERVICE CORPUS CHRISTI TX
600 PM CDT TUE MAY 24 2016


TXZ229>244-250000-
...CORPUS CHRISTI AREA OBSERVATIONS...

CITY           SKY/WX    TMP DP  RH WIND       PRES   REMARKS
CORPUS CHRISTI PTSUNNY   84  76  76 SE16      29.89F HX  93
NAS CORPUS CHR PTSUNNY   85  80  85 SE20      29.89F HX  99
ROCKPORT       PTSUNNY   83  75  77 SE15      29.90F HX  90
KINGSVILLE NAS PTSUNNY   87  80  79 SE16      29.87F HX 103
ALICE          CLOUDY    87  76  69 E12G24    29.87S HX  97
FALFURRIAS     MOSUNNY   90  75  61 E12       29.85S HX 101
$$

...VICTORIA AREA OBSERVATIONS...

CITY           SKY/WX    TMP DP  RH WIND       PRES   REMARKS
VICTORIA       MOSUNNY   84  73  69 SE16      29.93S HX  90
BEEVILLE       CLOUDY    84  77  79 SE13      29.90S HX  94
PLEASANTON     MOSUNNY   86  74  66 E12G17    29.88F HX  94
SAN ANTONIO    CLOUDY    84  75  74 SE13      29.91F HX  92
$$

...LAREDO AREA OBSERVATIONS...

CITY           SKY/WX    TMP DP  RH WIND       PRES   REMARKS
LAREDO         MOSUNNY   92  76  59 E9        29.84F HX 104
COTULLA        PTSUNNY   91  74  57 SE10      29.85F HX 100
DEL RIO        CLOUDY    88  74  63 SE16      29.85S HX  96
MCALLEN        SUNNY     93  76  57 SE14      29.85S HX 105
HEBBRONVILLE   CLOUDY    90  74  59 SE12G17   29.87S HX  99
$$

...OTHER TEXAS OBSERVATIONS...

CITY           SKY/WX    TMP DP  RH WIND       PRES   REMARKS
BROWNSVILLE    SUNNY     88  75  65 SE17G24   29.87S HX  97
HOUSTON        PTSUNNY   82  74  76 SE22G28   29.95F
COL. STATION   MOSUNNY   86  74  67 SE14G23   29.92S HX  94
AUSTIN         CLOUDY    85  74  69 S12       29.91R HX  92
WACO           CLOUDY    86  72  62 S13       29.90F HX  92
FORT WORTH     PTSUNNY   85  71  63 S17G24    29.89S HX  90
WICHITA FALLS  CLOUDY    84  71  65 S16       29.84S
LUBBOCK        CLOUDY    86  65  49 SE20      29.86F
EL PASO        MOSUNNY   90   8   4 SW21G30   29.93F
$$

...MARINE OBSERVATIONS...

STATION/POSITION TIME  SKY/WX   TEMP    WIND        PRES    VSBY  WAVE   SWELL
                                AIR SEA DIR/SP/G                  HT/PER HT/PER
                 (UTC)          (F)     (DEG/KT/KT) (MB)    (MI)  (FT/S) (FT/S)
PORT ARANSAS     2200            81 82  110/ 15/ 17 1013.6F
BUOY 90 E PORT A 2150            81 81  120/ 14/ 17 1013.9          5/ 6   2/ 9
BUOY 45 SE BAFFI 2150            81 81  130/ 14/ 16 1012.2          4/ 6   2/13
BUOY 200 E PT IS 2150                                 N/A           4/ 5
BUOY 15 E GALVES 2150            80 80  110/ 14/ 16 1015.0          3/ 6   2/ 9
$$



USA.gov is the U.S. government's official web portal to all federal, state and local government web resources and services.